Location: Gro�sch�nbrunn
(49.5760°N, 11.8868°E)
Time: 22:16:41
(UTC+00:00)

Resurs 01 Rocket - Pass Details

Date: 18 September 2020
Orbit: 633 x 645 km, 98.0° (Epoch: 30 October)

Event Time Altitude Azimuth Distance (km) Brightness Sun altitude
Exits shadow 19:19:14 46° 118° (ESE) 872 1.8 -19.6°
Maximum altitude 19:20:12 57° 71° (ENE) 765 1.7 -19.8°
Drops below altitude 10° 19:24:35 10° 353° (N) 2,054 4.7 -20.4°
Sets 19:26:50 0° 350° (N) 2,967 5.6 -20.7°
